Regional Weather Roundup
Issued by NWS

Home | Current Version | Previous Version | Graphics & Text | Print | Product List | Glossary Off
Versions: 1 2 3 4 5 6 7 8 9 10 11 12 13 14 15 16 17 18 19 20 21 22 23 24 25 26 27 28 29 30 31 32 33 34 35 36 37 38 39 40 41 42 43 44 45 46 47 48 49 50

000
ASUS45 KBOU 300607
RWRCO

WEATHER ROUNDUP FOR COLORADO
NATIONAL WEATHER SERVICE DENVER/BOULDER CO
1200 AM MDT SAT MAY 30 2015

NOTE: "FAIR" INDICATES FEW OR NO CLOUDS BELOW 12000 FEET WITH NO
SIGNIFICANT WEATHER AND/OR OBSTRUCTIONS TO VISIBILITY.

COZ001>005-013-030-031-300700-
...NORTHWEST COLORADO...

CITY           SKY/WX    TMP DP  RH WIND       PRES   REMARKS
CRAIG          CLEAR     43  39  86 CALM      30.30S
HAYDEN         CLEAR     45  36  70 E7        30.31F
MEEKER         CLEAR     45  40  82 NE6       30.30S
MOUNT WERNER   NOT AVBL
STEAMBOAT SPGS CLEAR     43  37  82 CALM      30.34S
WALDEN         CLEAR     36  32  87 E5        30.39R
$$

COZ006>008-011-300700-
...WEST CENTRAL VALLEYS...

CITY           SKY/WX    TMP DP  RH WIND       PRES   REMARKS
GRAND JUNCTION CLEAR     65  36  34 CALM      30.18R
MONTROSE       CLEAR     52  39  61 SE9       30.26R
EAGLE          CLEAR     55  48  76 CALM      30.37R
RIFLE          CLEAR     50  42  74 SE9       30.26R
DELTA          CLEAR     58  40  49 CALM      30.22R
NUCLA          CLEAR     54  37  54 SE8       30.28R
$$

COZ017>023-064>068-300700-
...SOUTHWEST COLORADO...

CITY           SKY/WX    TMP DP  RH WIND       PRES   REMARKS
DURANGO        CLEAR     50  31  48 CALM      30.25R
CORTEZ         CLEAR     46  32  58 E3        30.23R
PAGOSA SPRINGS CLEAR     46  32  59 CALM      30.31R
TELLURIDE      CLEAR     44  32  63 SE6       30.42S
WOLF CREEK PAS NOT AVBL
$$

COZ009-010-012-014-032>034-037-058>063-300700-
...CENTRAL COLORADO...

CITY           SKY/WX    TMP DP  RH WIND       PRES   REMARKS
ASPEN          CLEAR     42  36  79 SW7       30.36R
BUENA VISTA    PTCLDY    42  35  76 W7        30.38S
COPPER MTN     CLEAR     34  25  69 W8        30.53S WCI  27
BERTHOUD PASS  FAIR      27  19  74 NW17      30.53S HAZE    WCI  14
COTTONWOOD PAS CLEAR     43  34  70 CALM      30.46R
GUNNISON       CLEAR     45  30  57 CALM      30.37R
KREMMLING      CLEAR     41  36  81 CALM      30.39S
LEADVILLE      CLEAR     31  29  92 N5        30.44S WCI  26
MONARCH PASS   FOG       34  32  93 NE13      30.62S VSB<1/4 WCI  25
SALIDA         CLOUDY    51  40  67 E8G16     30.45R
SUNLIGHT       CLEAR     39  32  75 CALM      30.52R
WILKERSON PASS PTCLDY    32  30  93 SW3       30.53R
$$

COZ069>075-300700-
...SAN LUIS VALLEY/SANGRE DE CRISTO MOUNTAINS...

CITY           SKY/WX    TMP DP  RH WIND       PRES   REMARKS
ALAMOSA        PTCLDY    48  40  73 E20G25    30.32R
LA VETA PASS   LGT RAIN N/A N/A N/A MISG      30.48S VSB 1/2
SAGUACHE       CLEAR     50  34  53 NW7       30.34R
$$

COZ035-036-038>040-300700-
...NORTHERN COLORADO FRONT RANGE...

CITY           SKY/WX    TMP DP  RH WIND       PRES   REMARKS
DENVER INTL AP MOCLDY    48  44  86 E8        30.34R
DMNS CITY PARK   N/A     50  45  81 E8        30.34S
AURORA         NOT AVBL
FRONT RANGE AP CLOUDY    48  45  87 MISG      30.35S
ERIE MUNI ARPT CLOUDY    51  47  88 CALM      30.34R
BOULDER MUN AP CLOUDY    50  46  87 CALM      30.34S
CENTENNIAL     CLOUDY    48  44  86 NE7       30.35R
BROOMFIELD     CLOUDY    50  46  87 CALM      30.36R
FORT COLLINS   MOCLDY    50  45  81 SE5       30.34S
LONGMONT       CLOUDY    53  49  86 CALM      30.36R
$$

COZ041-046-047-076>085-087-088-300700-
...PIKES PEAK/PALMER DIVIDE AND SOUTHERN FOOTHILLS...

CITY           SKY/WX    TMP DP  RH WIND       PRES   REMARKS
COLO. SPRINGS  CLOUDY    50  45  83 E10       30.37R
A. F. ACADEMY  CLOUDY    48  46  93 N2        30.37R
ELLICOTT       CLOUDY   N/A N/A N/A NE10      30.36R
FALCON         CLOUDY    46  44  94 N6        30.40R
FORT CARSON    NOT AVBL
LIMON          CLOUDY    46  42  86 N12       30.35R
MONUMENT HILL  FOG       43  41  93 W6        30.39R VSB 1/4
TRINIDAD       CLOUDY    50  47  89 E8        30.36R
$$

COZ042>045-048>051-090-091-300700-
...NORTHEAST COLORADO...

CITY           SKY/WX    TMP DP  RH WIND       PRES   REMARKS
GREELEY ARPT   MOCLDY    50  46  87 S6        30.33S
AKRON          CLOUDY    47  45  93 N8        30.32R
BURLINGTON     CLOUDY    50  47  89 N10       30.31R
WRAY           CLOUDY    51  47  86 N10       30.31R
STERLING       CLOUDY    50  45  81 N5        30.31S
HOLYOKE        CLOUDY    50  45  81 N13       30.31R
FORT MORGAN    CLOUDY    49  44  83 E3        30.34R
$$

COZ086-089-092>099-300700-
...SOUTHEAST COLORADO...

CITY           SKY/WX    TMP DP  RH WIND       PRES   REMARKS
PUEBLO         LGT RAIN  54  50  86 E12       30.33R
LA JUNTA       LGT RAIN  56  50  80 NE7       30.32R
LAMAR          NOT AVBL
SPRINGFIELD      N/A     54  50  86 N12       30.29R
$$


USA.gov is the U.S. government's official web portal to all federal, state and local government web resources and services.